Location: Haulchin
(50.3172°N, 3.4360°E)
Time: 21:45:23
(UTC+00:00)

Cosmos 1825 - Pass Details

Date: 23 May 2024
Orbit: 440 x 443 km, 82.5° (Epoch: 14 June)

Event Time Altitude Azimuth Distance (km) Brightness Sun altitude
Exits shadow 02:35:14 - 166° (SSE) 2,324 5.2 -9.5°
Reaches altitude 10° 02:37:08 10° 157° (SSE) 1,563 4.4 -9.3°
Maximum altitude 02:40:13 32° 92° (E) 785 3.5 -9.0°
Drops below altitude 10° 02:43:20 10° 28° (NNE) 1,580 6.2 -8.7°
Sets 02:45:31 0° 18° (NNE) 2,459 7.0 -8.4°
